User: anonymous   Login
Location: Unspecified
(0.0000°N, 0.0000°E)
Time: 07:07:39
(UTC+00:00)
Language:

BIRD NN - Orbit

View from above orbital plane
View from above orbital plane
View from above satellite
View from above satellite

Ground track
Ground track

The orbit data is extracted from the following two-line orbital elements,

1 42824U 98067MY  19082.94737783 +.00100258 +14839-4 +32555-3 0  9996
2 42824 051.6311 001.0218 0005379 170.3658 189.7452 15.90675355097968
Epoch (UTC): 23 March 2019 22:44:13
Eccentricity: 0.0005379
inclination: 51.6311°
perigee height: 297 km
apogee height: 304 km
right ascension of ascending node: 1.0218°
argument of perigee: 170.3658°
revolutions per day: 15.90675355
mean anomaly at epoch: 189.7452°
orbit number at epoch: 9796

The dashed part of the orbit path shows where the satellite is in the earth's shadow,  

DLR